Tracking 29493 objects as of 9-Sep-2024
HD Live streaming from Space Station
objects crossing your sky now

OBJECT G

Track OBJECT G now!
10-day predictions


NORAD ID: 55254
Int'l Code: 2023-007G
Perigee: 353.6 km
Apogee: 359.9 km
Inclination: 97.3 °
Period: 91.5 minutes
Semi major axis: 6727 km
RCS: Unknown
Launch date: January 15, 2023
Source: People's Republic of China (PRC)
Launch site: Taiyaun Space Center, China (TSC)
Your satellite tracking list
Your tracking list is empty




NASA's NSSDC Master Catalog

Two Line Element Set (TLE):
1 55254U 23007G   24252.88914352  .00295565  00000-0  20801-2 0  9993
2 55254  97.2993 331.5902 0004718 220.7845 139.3066 15.73245072 92570
Source of the keplerian elements: AFSPC